Location: Newark
(44.1667°N, 8.2500°E)
Time: 01:46:07
(UTC+00:00)

S-56A Canister/Altair - Pass Details

Date: 16 December 2019
Orbit: 634 x 2498 km, 38.9° (Epoch: 22 January)

Event Time Altitude Azimuth Distance (km) Brightness Sun altitude
Rises 10:43:31 0° 267° (W) 5,709 11.9 21.9°
Reaches altitude 10° 10:47:00 10° 265° (W) 4,866 11.6 22.0°
Maximum altitude 11:01:25 71° 186° (S) 2,602 10.9 22.3°
Drops below altitude 10° 11:15:45 10° 107° (ESE) 4,840 11.9 22.5°
Sets 11:19:13 0° 105° (ESE) 5,679 12.2 22.5°
